CW0005 Weather Reports


time (UTC)temp
C
wind
direction
speed
KPH
gust
KPH
rain 1hr
cm
rain 24hr
cm
rain mn
cm
humidity
%
barometer
mb
20260507104505 5 13 0.0 0.0 0.00 0.00 0.00 66 1012.7
20260507103009 5 13 0.0 0.0 0.00 0.00 0.00 65 1012.9
20260507101520 5 13 0.0 0.0 0.00 0.00 0.00 63 1013.0
20260507100018 5 13 0.0 0.0 0.00 0.00 0.00 63 1013.1
20260507094518 5 13 0.0 0.0 0.00 0.00 0.00 64 1013.3
20260507093005 5 13 0.0 0.0 0.00 0.00 0.00 65 1013.6
20260507091508 5 13 0.0 0.0 0.00 0.00 0.00 65 1013.8
20260507090012 5 13 0.0 0.0 0.00 0.00 0.00 66 1014.2
20260507084516 5 13 0.0 1.6 0.00 0.00 0.00 67 1014.2
20260507083021 4 13 0.0 0.0 0.00 0.00 0.00 68 1014.3
20260507081521 3 13 0.0 0.0 0.00 0.00 0.00 70 1014.4
20260507080011 3 13 0.0 0.0 0.00 0.00 0.00 71 1014.6
20260507074515 3 13 0.0 0.0 0.00 0.00 0.00 72 1014.7
20260507073024 3 13 0.0 0.0 0.00 0.00 0.00 72 1014.9
20260507071516 3 13 0.0 0.0 0.00 0.00 0.00 70 1015.1
20260507070023 3 13 0.0 0.0 0.00 0.00 0.00 69 1015.1
20260507064512 3 13 0.0 0.0 0.00 0.00 0.00 68 1015.4
20260507061521 3 13 0.0 0.0 0.00 0.00 0.00 65 1015.5
20260507060008 4 13 0.0 0.0 0.00 0.00 0.00 64 1015.7
20260507054532 4 13 0.0 0.0 0.00 0.00 0.00 64 1015.7
20260507053014 4 13 0.0 0.0 0.00 0.00 0.00 63 1015.7
20260507051514 5 13 0.0 0.0 0.00 0.00 0.00 62 1015.9
20260507050043 5 13 0.0 0.0 0.00 0.00 0.00 61 1015.9
20260507044523 5 13 0.0 0.0 0.00 0.00 0.00 57 1016.0
20260507043019 5 13 0.0 0.0 0.00 0.00 0.00 56 1016.0
20260507040023 6 13 0.0 0.0 0.00 0.00 0.00 55 1016.2
20260507034524 6 13 0.0 0.0 0.00 0.00 0.00 53 1016.3
20260507033026 6 13 0.0 0.0 0.00 0.00 0.00 52 1016.4
20260507031515 7 13 0.0 0.0 0.00 0.00 0.00 50 1016.5
20260507030021 7 13 0.0 0.0 0.00 0.00 0.00 48 1016.6
20260507024504 7 13 0.0 0.0 0.00 0.00 0.00 46 1016.7
20260507023004 8 13 0.0 0.0 0.00 0.00 0.00 45 1016.6
20260507021512 8 13 0.0 0.0 0.00 0.00 0.00 42 1016.4
20260507020005 10 13 0.0 0.0 0.00 0.00 0.00 40 1016.3
20260507014503 10 13 0.0 0.0 0.00 0.00 0.00 38 1016.3
20260507013007 11 13 0.0 0.0 0.00 0.00 0.00 36 1016.2
20260507011514 11 13 0.0 0.0 0.00 0.00 0.00 33 1016.3
20260507010008 12 13 0.0 4.8 0.00 0.00 0.00 32 1016.2
20260507004504 12 13 0.0 6.4 0.00 0.00 0.00 31 1016.3
20260507003002 12 13 3.2 16.1 0.00 0.00 0.00 30 1016.3
20260507001506 12 13 1.6 12.9 0.00 0.00 0.00 30 1016.4
20260507000004 12 13 1.6 14.5 0.00 0.00 0.00 30 1016.5
20260506234504 13 13 3.2 9.7 0.00 0.00 0.00 31 1016.5
20260506233006 13 13 3.2 12.9 0.00 0.00 0.00 30 1016.6
20260506231506 13 13 1.6 9.7 0.00 0.00 0.00 31 1016.6
20260506230006 13 13 3.2 8.0 0.00 0.00 0.00 30 1016.8
20260506224507 13 13 1.6 8.0 0.00 0.00 0.00 29 1016.8
20260506223007 14 13 1.6 16.1 0.00 0.00 0.00 31 1016.9
20260506221507 14 13 1.6 16.1 0.00 0.00 0.00 30 1016.9
20260506220014 14 13 4.8 12.9 0.00 0.00 0.00 30 1016.9
20260506214511 13 13 3.2 16.1 0.00 0.00 0.00 32 1017.0
20260506213007 13 13 1.6 9.7 0.00 0.00 0.00 32 1017.0
20260506211507 13 13 3.2 14.5 0.00 0.00 0.00 30 1017.1
20260506210010 13 13 3.2 14.5 0.00 0.00 0.00 32 1017.3
20260506204511 13 13 3.2 16.1 0.00 0.00 0.00 29 1017.4
20260506203022 13 13 1.6 14.5 0.00 0.00 0.00 34 1017.4
20260506201509 13 13 1.6 12.9 0.00 0.00 0.00 33 1017.3
20260506200007 13 13 4.8 20.9 0.00 0.00 0.00 32 1017.7
20260506194512 13 13 1.6 20.9 0.00 0.00 0.00 35 1017.9
20260506193017 13 13 3.2 19.3 0.00 0.00 0.00 34 1018.0
20260506191512 13 13 1.6 17.7 0.00 0.00 0.00 33 1018.0
20260506190012 13 13 3.2 16.1 0.00 0.00 0.00 36 1018.0
20260506184512 12 13 3.2 17.7 0.00 0.00 0.00 36 1018.2
20260506183013 12 13 3.2 14.5 0.00 0.00 0.00 36 1018.3
20260506181520 12 13 3.2 16.1 0.00 0.00 0.00 35 1018.4
20260506180016 11 13 3.2 12.9 0.00 0.00 0.00 37 1018.5
20260506173004 10 13 3.2 14.5 0.00 0.00 0.00 39 1018.8
20260506171510 11 13 1.6 14.5 0.00 0.00 0.00 39 1018.8
20260506170010 10 13 3.2 12.9 0.00 0.00 0.00 37 1018.8
20260506164517 10 13 6.4 20.9 0.00 0.00 0.00 37 1018.8
20260506163007 10 13 0.0 14.5 0.00 0.00 0.00 39 1018.8
20260506161502 10 13 1.6 16.1 0.00 0.00 0.00 39 1018.7
20260506160007 10 13 3.2 16.1 0.00 0.00 0.00 40 1018.6
20260506154506 10 13 0.0 9.7 0.00 0.00 0.00 43 1018.7
20260506153017 9 13 1.6 12.9 0.00 0.00 0.00 45 1018.6
20260506151525 8 13 1.6 9.7 0.00 0.00 0.00 48 1018.6
20260506150010 8 13 0.0 9.7 0.00 0.00 0.00 52 1018.7
20260506144511 8 13 0.0 6.4 0.00 0.00 0.00 50 1018.6
20260506143025 7 13 0.0 8.0 0.00 0.00 0.00 54 1018.6
20260506141514 7 13 1.6 6.4 0.00 0.00 0.00 55 1018.6
20260506134507 6 13 1.6 6.4 0.00 0.00 0.00 59 1018.2
20260506133009 5 13 0.0 12.9 0.00 0.00 0.00 60 1018.1
20260506131517 5 13 0.0 8.0 0.00 0.00 0.00 62 1018.0
20260506130013 5 13 0.0 4.8 0.00 0.00 0.00 64 1017.8
20260506124517 4 13 0.0 0.0 0.00 0.00 0.00 65 1017.9
20260506123017 4 13 0.0 0.0 0.00 0.00 0.00 66 1017.7
20260506121510 4 13 0.0 0.0 0.00 0.00 0.00 65 1017.5
20260506120018 4 13 0.0 0.0 0.00 0.00 0.00 65 1017.4
20260506114519 4 13 0.0 0.0 0.00 0.00 0.00 63 1017.2
20260506113019 4 13 0.0 0.0 0.00 0.00 0.00 63 1017.1
20260506111518 4 13 0.0 0.0 0.00 0.00 0.00 62 1016.8
20260506110013 4 13 0.0 0.0 0.00 0.00 0.00 62 1016.6